This demonstration page uses our WeatherBlox Daily Observations layout. Learn more.

Left ArrowRight Arrow

34.74481, -87.66753

Hourly Observations for December 3, 2020

Temp ( °F °C ) Dew Point ( °F °C ) Humidity (%) Winds ( mph kmh ) Pressure ( in mb ) Visibility ( mi km ) Precip ( " mm )
12:53 am 00:53 Clear 31 -0.6 26 -3.3 82 82 E 3 6 30.28 1025 10 16 0.00 0.00
1:53 am 01:53 Clear 33 0.6 28 -2.2 82 82 Calm 30.27 1025 10 16 0.00 0.00
2:53 am 02:53 Clear 35 1.7 30 -1.1 82 82 Calm 30.28 1026 10 16 0.00 0.00
3:53 am 03:53 Clear 36 2.2 30 -1.1 79 79 ESE 3 6 30.27 1025 10 16 0.00 0.00
4:53 am 04:53 Clear 35 1.7 29 -1.7 78 78 Calm 30.27 1025 10 16 0.00 0.00
5:53 am 05:53 Cloudy 36 2.2 29 -1.7 76 76 E 5 7 30.27 1025 10 16 0.00 0.00
6:53 am 06:53 Cloudy 37 2.8 30 -1.1 76 76 E 3 6 30.29 1026 10 16 0.00 0.00
7:53 am 07:53 Cloudy 39 3.9 30 -1.1 70 70 E 5 7 30.30 1026 10 16 0.00 0.00
8:53 am 08:53 Mostly Cloudy 43 6.1 30 -1.1 60 60 ESE 8 13 30.29 1026 10 16 0.00 0.00
9:53 am 09:53 Cloudy 44 6.7 30 -1.1 58 58 ESE 6 9 30.29 1026 10 16 0.00 0.00
10:53 am 10:53 Cloudy 47 8.3 31 -0.6 54 54 E 6 9 30.28 1025 10 16 0.00 0.00
11:53 am 11:53 Cloudy 50 10 31 -0.6 48 48 E 10 17 30.22 1024 10 16 0.00 0.00
12:53 pm 12:53 Cloudy 54 12.2 34 1.1 47 47 ESE 9 15 30.18 1022 10 16 0.00 0.00
1:53 pm 13:53 Mostly Cloudy 57 13.9 28 -2.2 33 33 SE 9 15 30.15 1021 10 16 0.00 0.00
2:53 pm 14:53 Cloudy 54 12.2 28 -2.2 37 37 SE 9 15 30.14 1021 10 16 0.00 0.00
3:40 pm 15:40 Cloudy with Light Rain 52 11.1 34 1.1 50 50 SSE 6 9 30.16 1021 10 16 0.00 0.00
3:50 pm 15:50 Cloudy 52 11 36 2 54 54 SSE 5 7 30.16 1021 10 16 0.00 0.00
3:53 pm 15:53 Cloudy with Light Rain 52 11.1 35 1.7 53 53 SE 5 7 30.15 1021 10 16 0.00 0.00
4:53 pm 16:53 Mostly Cloudy 49 9.4 38 3.3 66 66 W 8 13 30.15 1021 10 16 0.05 1.27
5:53 pm 17:53 Cloudy 48 8.9 40 4.4 74 74 Calm 30.16 1021 10 16 0.00 0.00
6:53 pm 18:53 Cloudy 47 8.3 41 5 80 80 NW 5 7 30.16 1021 10 16 0.04 1.02
7:40 pm 19:40 Cloudy with Heavy Rain 46 7.8 42 5.6 86 86 Calm 30.16 1021 2 3 0.09 2.29
7:45 pm 19:45 Cloudy with Rain 46 7.8 42 5.6 86 86 Calm 30.16 1021 3 5 0.10 2.54
7:53 pm 19:53 Cloudy with Heavy Rain 46 7.8 41 5 83 83 Calm 30.16 1021 2 3 0.15 3.81
8:10 pm 20:10 Cloudy with Heavy Rain 46 7.8 41 5 83 83 Calm 30.16 1021 3 5 0.06 1.52
8:18 pm 20:18 Cloudy with Heavy Rain 45 7.2 42 5.6 90 90 N 3 6 30.16 1021 3 4 0.12 3.05
8:30 pm 20:30 Cloudy with Rain 45 7.2 42 5.6 90 90 NNW 7 11 30.16 1021 3 5 0.18 4.57
8:53 pm 20:53 Cloudy with Heavy Rain 45 7.2 42 5.6 90 90 N 3 6 30.15 1021 3 5 0.25 6.35
9:24 pm 21:24 Cloudy with Heavy Rain 45 7.2 42 5.6 90 90 NNW 5 7 30.16 1021 2 3 0.18 4.57
9:31 pm 21:31 Cloudy with Rain 45 7.2 42 5.6 90 90 NNW 5 7 30.16 1021 3 5 0.20 5.08
9:53 pm 21:53 Cloudy 46 7.8 43 6.1 89 89 Calm 30.14 1021 10 16 0.21 5.33
10:53 pm 22:53 Cloudy with Rain 46 7.8 43 6.1 89 89 Calm 30.15 1021 3 5 0.07 1.78
11:53 pm 23:53 Cloudy with Light Rain 45 7.2 43 6.1 93 93 Calm 30.13 1020 3 4 0.13 3.30

Powered by AerisWeather